Printer-friendly version

IAU Minor Planet Center

Minor Planet Center

MPEC 2005-C46 : 2003 MK4

The following Minor Planet Electronic Circular may be linked-to from your own Web pages, but must not otherwise be redistributed electronically.


Read MPEC 2005-C45 Read MPEC 2005-C47


M.P.E.C. 2005-C46                                Issued 2005 Feb. 10, 17:26 UT

     The Minor Planet Electronic Circulars contain information on unusual
         minor planets and routine data on comets.  They are published
   on behalf of Commission 20 of the International Astronomical Union by the
          Minor Planet Center, Smithsonian Astrophysical Observatory,
                          Cambridge, MA 02138, U.S.A.

                  Supported in part by the Brinson Foundation
             Prepared using the Tamkin Foundation Computer Network

                              MPC@CFA.HARVARD.EDU
          URL http://cfa-www.harvard.edu/iau/mpc.html  ISSN 1523-6714

                                   2003 MK4

                           Revision to MPEC 2003-M58

Additional Observations:
     K03M04K 9C2005 02 09.08477 03 20 27.88 -01 08 40.8          21.2 R EC046809
     K03M04K 9C2005 02 09.09109 03 20 29.82 -01 08 50.7          21.0 R EC046809
     K03M04K 9C2005 02 09.09740 03 20 31.76 -01 09 00.2          21.3 R EC046809
     K03M04K 9C2005 02 09.10117 03 20 32.92 -01 09 05.9          21.4 R EC046809
     K03M04K 9C2005 02 10.08568 03 25 38.30 -01 33 35.6          21.1 R EC046809
     K03M04K 9C2005 02 10.09429 03 25 40.85 -01 33 48.4          21.2 R EC046809
     K03M04K 9C2005 02 10.10072 03 25 42.81 -01 33 58.0          20.4 R EC046809

Observer details:
809 European Southern Observatory, La Silla.  Observer A. Boattini.  Measurers
    A. Boattini, H. Scholl, G. Forti.  2.2-m f/5.9 reflector + CCD.

First and last observations above in comparison with prediction:
Residuals in seconds of arc (or two decimals in degrees), reference and Delta-T
050209 809 0.09- 0.10+    050210 809 0.09- 0.10+    MPO 50769   +0.049 day

Orbital elements:
2003 MK4                                                             PHA 0.015D
Epoch 2005 Jan. 30.0 TT = JDT 2453400.5                 MPC
M  59.44277              (2000.0)            P               Q
n   0.87766598     Peri.  109.47971     +0.77783259     -0.50765244
a   1.0803966      Node   282.66252     +0.33151779     +0.83225344
e   0.1812790      Incl.   22.31691     +0.53392173     +0.22280755
P   1.12           H   20.9           G   0.15           U   3
Residuals in seconds of arc
030627 704  0.4-  0.1+    030703 176  0.3-  0.1-    030712 941  1.8+  0.8-
030627 704  0.1+  1.0-    030703 176  0.2-  0.2+    030712 941  1.4+  0.5-
030627 704  0.1-  0.7-    030703 176  0.5-  0.1-    030712 941  1.5+  0.3-
030627 704  0.4+  1.4-    030704 649  0.3+  0.2+    030712 941  1.5+  0.3-
030627 428  1.0-  0.2-    030704 649  0.0   0.1+    030712 941  0.5+  0.1+
030627 428  0.8-  0.2+    030704 649  0.0   0.4+    030712 A50  0.3+  1.1+
030627 428  0.5-  0.6+    030704 670  0.0   0.1+    030712 A50  0.1-  0.8+
030627 A50  1.3-  1.3+    030704 670  0.0   0.1+    030712 A50  0.1+  0.2-
030627 A50 (0.9-  3.3+)   030704 670  0.2+  1.0-    030712 A50  0.1-  1.1+
030627 A50  0.7-  1.2-    030704 J87  1.7+  0.1+    030712 A50  0.1-  0.4+
030627 A50  0.4-  1.2+    030704 J87  1.0-  0.8-    030712 A50  0.8+  0.3-
030627 A50  1.4-  0.6+    030704 J87  1.2+  0.7-    030712 A50  0.1-  0.0
030627 A50  0.4+  0.5+    030704 J87  1.5-  1.7+    030712 A50  0.1+  0.4-
030627 A50  0.7+  1.6-    030706 649  0.5-  0.9+    030712 J95  0.1+  0.1-
030628 J95  0.1-  0.0     030706 649  0.4+  0.1+    030712 J95  0.3+  0.0
030628 J95  0.5+  0.1+    030706 649  0.2+  0.6+    030712 J95  0.1+  0.1+
030628 704  0.0   0.2-    030706 587  0.1+  0.0     030713 448  0.1-  0.0
030628 704  0.1-  0.4-    030706 587  0.4+  1.5-    030713 448  0.1-  0.1+
030628 704  0.0   0.3-    030706 151  0.1-  2.0+    030713 448  0.2+  0.0
030628 704  0.2+  0.7-    030706 151  0.5+  1.2+    030714 649  0.2+  0.3+
030628 704  0.3-  0.8-    030706 151  0.5-  0.9+    030714 649  0.0   0.1-
030628 704  0.5+  0.8-    030706 151  0.8-  1.8+    030714 649  0.1-  0.2+
030628 704  0.2+  0.1+    030706 151  0.2+  0.7+    030715 118  0.1+  0.3+
030628 704  0.9+  0.3-    030706 151  0.4-  0.7+    030715 118  0.1-  0.4+
030628 704  0.2+  0.6-    030706 151  0.8-  0.3-    030715 118  0.3-  0.5+
030628 704  0.7-  0.1-    030706 151  0.3-  0.7+    030715 118  0.7-  0.4+
030628 926  0.6+  0.6-    030706 151  0.5-  0.2+    030716 118  0.7-  1.2-
030628 926  0.5+  0.4-    030706 240  0.2-  0.4+    030716 118  0.5-  1.2-
030628 926  1.8-  0.1-    030706 240  0.6-  0.7+    030716 118  0.3-  0.3-
030628 428  0.3+  0.4-    030706 240  0.5-  0.8+    030717 587  0.2-  0.0
030628 428  0.7+  0.4-    030706 240  0.2-  1.6-    030717 587  0.4-  0.2+
030629 704  0.2-  0.2+    030706 240  0.1-  1.0-    030718 176  0.6-  0.2-
030629 704  0.3-  0.2+    030706 240  0.2+  0.3+    030718 176  0.2-  0.0
030629 704  0.2-  1.0-    030706 J95  0.2+  0.3-    030718 176  0.0   0.0
030629 704  0.1+  0.5-    030706 J95  0.1+  0.3-    030718 176  0.2+  0.1+
030630 118  0.2-  0.1+    030706 J95  0.1+  0.2+    030719 J95  0.1+  0.1+
030630 118  0.4-  0.5+    030707 671  0.2+  0.2+    030719 J95  0.2+  0.1+
030630 118  0.2-  0.7+    030707 671  0.1+  0.2-    030719 J95  0.2-  0.4-
030630 046  0.2+  1.2+    030707 671  0.3-  0.0     030719 448  1.0-  0.3+
030630 046  0.1-  0.2+    030707 671  0.3-  0.2+    030719 448  1.2-  0.4+
030630 046  0.7-  0.1+    030707 938  0.5+  0.7-    030719 448  1.1-  0.3-
030630 046  0.7-  0.3+    030707 938  0.0   0.4-    030719 046  0.4-  0.1+
030630 246  0.3-  0.2-    030707 938  0.1+  0.0     030719 046  0.3-  0.4-
030630 246  0.1-  0.9+    030707 938  0.3+  0.4-    030719 046  0.3-  0.3+
030630 246  0.1+  0.4-    030707 938  0.4+  0.5-    030719 046  0.3-  0.4-
030630 246  0.2+  0.5-    030707 938  0.6+  0.1-    030725 J95  0.0   0.0
030630 246  0.3+  0.7-    030707 938  0.9-  1.5+    030725 J95  0.1+  0.0
030630 246  0.1-  0.0     030707 938  0.0   0.6+    030725 J95  0.4-  0.3-
030701 608  0.6-  0.4+    030707 938  0.3+  0.3+    030725 J95  0.1+  0.1-
030701 608  0.8-  0.4+    030707 938  0.4+  0.1+    030726 950  0.6-  0.5-
030701 608  0.6-  0.5+    030707 938 (2.3+  1.8+)   030726 950  0.6-  0.5-
030701 587 (1.0-  2.2+)   030708 118  0.3+  0.6+    030726 950  0.6-  0.6-
030701 587  1.2-  0.1-    030708 118  0.2+  0.7+    030726 950  0.6-  0.6-
030701 587  0.6-  0.6+    030708 118  0.3+  0.4+    030726 448  0.1+  0.1+
030701 587  0.5+  1.5+    030708 118  0.2+  0.1-    030726 448  0.5+  1.0-
030702 413  0.0   0.1-    030709 649  0.1+  0.2-    030726 448  0.5+  1.1-
030702 413  0.0   0.1-    030709 649  0.1+  0.0     030726 J87  1.7+  1.9-
030702 413  0.0   0.1-    030709 649  0.1+  0.2-    030726 J87  1.5-  0.9+
030702 413  0.1-  0.2-    030710 J95  0.3+  0.4-    030726 J87  0.1-  1.4+
030702 413  0.0   0.0     030710 J95  0.1-  0.3-    030726 J87  1.3+  0.1-
030703 649  0.2+  0.1-    030710 J95  0.1-  0.1-    030728 J95  0.1+  0.1+
030703 649  0.1+  0.0     030711 118  0.1-  0.1+    030728 J95  0.4+  0.7+
030703 649  0.0   0.0     030711 118  0.1+  0.4+    030728 J95  0.0   0.5+
030703 734  0.8+  1.3-    030711 118  0.3+  0.1-    030804 950  0.3-  0.4-
030703 734  0.5+  0.4+    030711 649  0.1+  0.9+    030804 950  0.3-  0.3-
030703 671  0.7+  0.7-    030711 649  0.1+  0.9-    030804 950  0.3-  0.3-
030703 671  0.0   0.8-    030711 649  0.2-  0.2-    030804 950  0.3-  0.3-
030703 671  1.0-  1.0+    030711 A50  0.2+  0.3+    030804 950  0.2-  0.2-
030703 671  0.7-  0.4+    030711 A50  0.4-  0.3+    030804 950  0.2-  0.3-
030703 671  0.9+  0.3-    030711 A50  0.1-  0.1+    050209 809  0.2+  0.1+
030703 413  0.1-  0.3-    030711 A50  0.1+  0.2+    050209 809  0.1+  0.2-
030703 413  0.0   0.3-    030711 A50  0.2-  0.2-    050209 809  0.0   0.1-
030703 413  0.1-  0.3-    030711 A50  0.4+  0.2-    050209 809  0.0   0.1-
030703 413  0.0   0.2-    030711 A50  0.2+  0.1+    050210 809  0.0   0.0
030703 176  0.2+  0.3+    030711 A50  0.1+  0.3+    050210 809  0.7-  0.2-
030703 176  0.0   0.3+    030711 A50  0.1+  0.0     050210 809  0.4-  0.4-

Ephemeris:
2003 MK4                 a,e,i = 1.08, 0.18, 22                  q = 0.8845
Date    TT    R. A. (2000) Decl.     Delta      r     Elong.  Phase     V
2005 02 09    03 20.03   -01 06.7    0.385    1.041    87.1    71.2    21.4
2005 02 19    04 07.43   -04 41.6    0.440    1.071    88.5    67.3    21.6
2005 03 01    04 46.96   -07 09.9    0.501    1.101    88.9    64.1    21.9
2005 03 11    05 21.34   -08 49.2    0.564    1.130    88.5    61.5    22.1

Timothy B. Spahr             (C) Copyright 2005 MPC           M.P.E.C. 2005-C46

Read MPEC 2005-C45 Read MPEC 2005-C47


Our Web policy. Index to the CBAT/MPC/ICQ pages.


Valid HTML 4.01!